Wind_Speed
3 4 4 4 5 4 4 5 5 5 6 6 6 6 7 6 6 7 7 8 8 8 9 9 9 9 9 10 10 10 10 10 10 10 9 9 10 11 11 11 11 11 11
4 4 4 4 4 5 5 5 6 6 6 6 6 6 7 7 7 7 8 8 8 8 8 9 9 10 10 10 10 10 10 10 10 10 10 10 11 11 11 11 12 12 12
4 4 4 4 5 6 6 6 6 7 7 7 7 7 7 8 7 8 8 8 8 9 9 9 10 10 10 10 10 10 10 10 10 10 11 11 12 11 12 12 12 13 13
5 5 5 5 6 6 6 6 6 7 7 7 7 7 7 7 7 8 8 9 9 9 9 9 9 9 9 10 10 11 11 11 11 11 11 12 12 12 12 12 13 13 13
5 6 7 7 7 7 7 7 7 7 7 7 7 7 7 7 7 8 8 9 9 9 9 9 9 9 9 10 10 11 11 11 12 12 12 12 13 13 13 13 13 13 14
6 7 8 8 7 7 7 7 7 7 8 8 8 8 8 8 8 9 9 9 9 10 10 10 10 10 10 10 11 11 11 11 12 12 12 13 14 14 14 13 14 14 15
7 7 8 9 8 8 8 8 8 8 8 9 9 9 9 9 10 10 10 10 10 11 11 11 11 11 11 12 12 12 12 13 13 13 14 14 14 14 14 14 14 15 15
8 8 8 8 9 9 9 9 9 9 9 9 9 9 9 10 10 11 11 11 11 12 12 12 12 13 13 13 13 13 14 14 14 14 14 14 15 15 16 16 16 16 16
9 9 8 8 9 9 9 9 9 9 9 9 9 9 10 11 11 11 12 12 12 12 13 13 13 13 13 13 13 14 13 14 15 16 16 16 16 16 16 17 17 16 16
10 9 9 9 9 9 10 9 9 9 9 9 9 10 10 11 11 12 12 13 13 13 13 14 13 13 13 14 14 14 14 15 16 16 16 16 17 17 17 17 17 17 17
11 11 11 10 9 9 9 10 10 10 10 10 10 11 11 12 12 12 13 13 13 14 14 15 15 14 15 15 16 16 16 16 16 17 16 16 16 17 17 17 17 17 17
11 11 11 11 10 10 10 11 11 11 11 12 12 12 12 12 13 13 13 14 14 14 15 15 16 16 16 17 17 17 17 17 17 17 17 17 17 17 17 18 18 18 17
12 12 12 12 11 12 12 12 12 11 12 12 13 13 13 14 14 14 14 14 14 15 16 16 17 17 17 18 18 17 17 18 18 18 18 18 18 18 18 18 18 18 19
14 14 14 13 13 13 13 13 12 12 12 13 13 14 14 14 14 14 15 16 16 16 17 17 18 18 18 18 18 18 18 18 19 18 19 19 19 19 19 19 19 19 19
15 16 15 14 14 14 14 14 14 13 14 14 15 15 14 15 15 15 16 17 17 18 18 19 19 19 19 18 19 19 19 19 19 19 19 20 20 20 20 20 20 20 20
16 16 16 16 16 15 15 15 15 16 16 16 16 16 16 16 16 17 17 18 19 19 19 20 20 21 21 21 20 20 20 20 20 20 20 20 20 21 21 21 20 20 20
17 17 17 17 17 17 17 17 17 18 17 17 18 18 18 18 18 18 19 20 20 20 20 20 21 21 21 21 21 21 21 21 21 21 21 21 21 21 21 21 21 21 21
19 18 18 18 18 19 19 18 19 19 19 19 20 20 20 20 20 20 20 21 21 21 21 21 22 22 22 22 22 22 22 22 22 22 22 22 21 21 22 22 22 22 22
20 20 20 20 20 20 21 21 21 21 21 21 21 21 21 21 22 22 22 22 22 22 22 22 23 22 22 23 22 22 22 23 23 23 23 23 22 23 23 23 23 23 24
22 21 22 22 22 22 23 23 23 23 23 23 22 22 23 23 23 23 23 23 23 23 24 24 24 24 23 23 23 24 24 24 24 23 23 23 23 23 24 24 24 24 24
24 24 24 24 24 24 25 24 24 25 25 25 24 25 25 25 24 24 25 25 25 25 25 26 25 25 25 24 24 25 25 24 24 24 24 23 23 24 24 25 25 25 25
25 25 25 25 25 26 26 26 26 26 26 26 26 26 26 25 26 26 26 26 26 26 27 27 26 26 26 26 26 26 26 25 25 24 25 25 25 25 25 25 26 26 27
25 25 26 26 26 26 27 27 27 27 27 27 27 27 27 27 27 27 27 28 28 27 27 27 27 27 26 26 26 26 26 26 26 25 26 26 26 25 25 26 26 27 27
27 27 27 27 27 27 27 27 27 27 27 27 27 27 27 28 28 29 29 29 29 28 28 27 27 28 28 27 27 27 27 27 27 27 26 26 26 26 26 26 27 27 27
28 29 29 29 28 28 28 28 28 28 28 28 28 28 28 29 29 29 29 29 29 28 28 28 28 28 28 28 28 28 28 28 27 27 27 27 27 27 27 27 28 28 27
29 29 29 29 29 29 29 29 29 29 29 29 29 29 29 30 30 30 30 30 30 29 29 29 29 28 28 29 28 28 28 28 28 28 28 28 28 28 28 28 28 28 28
Wind_Direction
292 291 297 306 311 315 318 310 303 302 296 292 291 289 287 285 287 289 280 279 281 278 275 273 275 277 277 278 275 273 273 275 275 274 278 279 283 282 279 275 274 277 278
294 293 302 307 308 312 308 306 303 299 297 298 294 291 287 280 278 279 279 282 283 281 281 279 278 277 277 279 276 272 272 273 273 277 280 281 282 283 281 277 277 280 280
291 286 292 294 299 304 303 301 300 299 299 299 298 290 286 282 276 279 280 281 286 281 279 278 277 278 279 280 277 273 274 274 276 279 281 282 282 283 283 280 280 282 282
287 280 284 289 293 296 299 298 296 297 298 298 299 293 289 289 283 283 283 283 285 284 282 282 279 277 278 278 275 273 273 274 275 278 281 283 283 284 282 282 282 283 283
288 286 288 289 292 292 293 293 291 292 292 290 291 293 289 287 286 284 284 285 286 286 284 284 285 283 281 279 275 273 272 273 275 278 281 282 283 284 282 281 282 283 285
289 286 289 289 289 289 290 290 291 289 287 288 289 290 289 287 286 286 286 283 283 284 284 285 287 289 286 285 282 277 276 276 277 279 281 283 284 285 283 282 282 283 284
289 292 289 288 287 287 286 288 291 289 286 289 291 291 289 289 288 286 285 284 282 283 285 287 286 286 285 282 284 281 277 277 278 280 283 282 284 284 284 282 281 281 282
291 293 294 290 287 284 282 281 284 287 285 287 291 293 290 291 290 286 284 284 283 285 286 286 287 287 286 286 283 284 280 277 278 280 283 284 285 284 283 282 282 281 280
294 291 290 290 291 288 282 279 279 281 282 282 287 292 293 292 290 287 285 286 286 286 286 286 286 286 285 284 283 282 283 281 279 280 281 281 281 281 282 284 283 282 280
291 290 290 291 290 289 286 284 284 282 281 282 284 288 290 290 289 287 286 284 283 285 285 285 286 286 285 285 286 284 283 284 283 282 282 282 283 282 284 284 284 283 282
287 287 288 289 288 285 282 283 285 285 285 284 285 288 290 290 289 288 287 286 285 285 285 287 287 286 287 287 287 285 284 284 285 283 282 283 284 283 284 283 283 283 282
287 288 287 286 285 283 280 281 284 284 287 288 289 289 290 291 290 289 289 287 285 284 285 289 288 287 287 288 288 287 286 284 285 284 285 284 284 285 283 283 282 282 281
285 286 286 286 286 284 282 281 282 282 283 286 286 287 287 289 289 288 288 289 286 285 286 288 287 287 288 288 288 288 286 285 284 283 284 286 286 285 284 284 283 283 281
283 285 284 284 285 284 283 282 283 282 283 284 284 285 286 288 289 287 287 289 288 287 285 286 286 286 286 287 287 286 286 286 285 284 284 284 286 284 284 284 283 283 282
284 284 285 283 284 283 282 282 283 282 283 284 284 284 284 286 287 286 287 288 288 287 288 287 285 284 285 286 286 286 285 284 283 284 284 285 286 286 284 283 283 282 281
283 282 282 281 281 280 279 280 283 283 284 284 284 285 285 285 285 286 287 288 290 289 290 288 286 285 285 286 285 285 284 283 283 283 284 284 286 286 286 284 284 283 282
280 280 278 278 279 278 278 279 281 284 284 283 284 286 286 285 284 285 287 288 290 291 290 289 287 286 285 284 284 283 283 282 283 283 284 286 287 286 287 286 285 283 282
277 276 276 277 278 280 280 280 282 283 284 284 285 285 284 283 284 285 288 289 290 291 290 288 287 286 286 286 285 283 282 282 283 284 285 284 284 286 287 287 286 285 284
275 275 276 276 277 279 281 281 282 284 284 285 285 284 283 283 284 285 287 287 289 289 289 288 287 286 287 287 286 286 283 282 282 282 282 283 283 284 286 288 288 286 284
275 276 277 278 278 279 280 281 282 284 284 283 283 283 282 283 284 285 287 287 288 287 287 287 287 286 286 285 285 286 285 282 281 281 282 283 284 285 285 287 289 287 285
275 276 276 277 278 278 279 279 280 281 282 282 282 282 282 281 283 284 285 286 286 286 286 287 286 286 286 285 285 286 286 283 280 279 280 282 283 285 286 288 289 289 287
275 275 274 276 277 278 278 278 279 279 281 281 283 282 281 280 281 282 283 284 284 285 286 286 286 286 285 284 285 286 286 284 280 279 280 281 283 284 286 287 288 289 288
275 275 275 275 276 278 279 279 279 279 279 280 281 281 281 281 281 281 281 282 282 284 285 284 285 285 285 284 284 286 285 283 281 280 281 282 282 283 284 286 288 287 287
275 275 274 274 276 277 278 278 279 279 279 279 279 280 281 281 281 281 280 281 281 282 282 282 282 283 284 284 283 284 284 283 281 280 280 281 282 282 283 286 287 287 287
274 274 274 275 276 277 279 278 278 279 280 280 279 280 281 282 282 282 281 281 281 281 280 280 281 283 283 282 281 281 281 281 280 280 281 281 282 283 284 284 286 287 286
275 275 275 277 277 276 276 277 277 277 278 279 279 279 280 281 282 282 281 281 281 279 279 280 280 282 282 280 280 279 278 278 279 280 280 280 281 281 282 283 284 285 285
Height
5864 5864 5864 5864 5863 5863 5862 5862 5861 5861 5861 5860 5859 5859 5858 5858 5857 5857 5857 5856 5856 5855 5855 5855 5854 5854 5854 5853 5853 5852 5852 5852 5852 5852 5851 5851 5850 5850 5849 5848 5848 5847 5847
5863 5863 5863 5862 5862 5861 5861 5860 5860 5859 5859 5858 5858 5857 5857 5856 5856 5855 5854 5854 5854 5853 5853 5852 5852 5852 5851 5851 5850 5850 5850 5849 5849 5849 5849 5848 5848 5847 5846 5846 5845 5844 5844
5862 5861 5861 5861 5861 5860 5859 5859 5858 5858 5857 5856 5856 5855 5855 5854 5854 5853 5852 5852 5851 5851 5850 5850 5850 5849 5848 5848 5847 5847 5847 5847 5847 5846 5846 5846 5845 5844 5843 5843 5842 5841 5841
5860 5860 5860 5860 5859 5859 5858 5857 5857 5856 5855 5855 5854 5853 5853 5852 5851 5851 5850 5850 5849 5849 5848 5848 5847 5847 5846 5845 5845 5845 5844 5844 5844 5843 5843 5843 5842 5841 5840 5840 5839 5838 5837
5858 5858 5858 5858 5857 5857 5856 5855 5855 5854 5854 5853 5852 5851 5850 5850 5849 5849 5848 5848 5847 5847 5846 5846 5845 5844 5843 5843 5842 5842 5842 5841 5841 5840 5839 5839 5838 5838 5837 5836 5836 5835 5834
5856 5856 5855 5855 5855 5854 5854 5853 5853 5852 5852 5851 5850 5849 5848 5848 5847 5846 5846 5845 5845 5844 5844 5843 5842 5841 5841 5840 5839 5839 5839 5838 5837 5837 5836 5835 5834 5834 5833 5833 5832 5831 5830
5854 5853 5853 5853 5852 5852 5851 5851 5851 5850 5849 5848 5848 5847 5846 5845 5845 5844 5843 5843 5842 5842 5841 5840 5840 5839 5838 5837 5836 5836 5835 5835 5834 5833 5832 5831 5830 5830 5829 5829 5828 5827 5826
5852 5851 5850 5850 5850 5849 5849 5848 5848 5847 5846 5846 5845 5844 5843 5843 5842 5841 5840 5840 5839 5839 5838 5837 5837 5836 5835 5834 5833 5832 5832 5831 5830 5829 5829 5828 5827 5826 5825 5824 5823 5822 5822
5849 5848 5848 5847 5847 5846 5846 5845 5845 5844 5844 5843 5842 5841 5841 5840 5839 5838 5837 5837 5836 5835 5834 5834 5833 5832 5831 5830 5829 5828 5828 5827 5826 5825 5824 5823 5822 5822 5821 5820 5819 5818 5817
5846 5846 5845 5845 5844 5844 5843 5842 5842 5841 5841 5840 5839 5838 5838 5837 5836 5835 5834 5833 5832 5832 5831 5830 5829 5828 5828 5827 5826 5825 5824 5823 5822 5821 5820 5819 5817 5817 5816 5815 5814 5813 5812
5843 5843 5842 5842 5841 5841 5840 5839 5839 5838 5838 5837 5836 5835 5834 5833 5832 5831 5830 5830 5829 5828 5827 5826 5825 5824 5823 5823 5821 5820 5819 5818 5817 5816 5815 5814 5813 5812 5811 5810 5809 5808 5807
5840 5840 5839 5839 5838 5838 5837 5837 5836 5835 5834 5833 5833 5832 5831 5830 5829 5828 5827 5826 5825 5824 5823 5822 5821 5820 5819 5818 5817 5815 5814 5813 5812 5811 5810 5809 5808 5807 5805 5804 5803 5802 5801
5837 5836 5836 5835 5835 5834 5834 5833 5832 5832 5831 5830 5829 5828 5827 5826 5825 5824 5823 5822 5821 5820 5819 5818 5816 5815 5814 5813 5812 5810 5809 5808 5807 5806 5805 5804 5802 5801 5800 5799 5798 5797 5796
5833 5833 5832 5832 5831 5831 5830 5829 5828 5828 5827 5826 5825 5824 5823 5822 5821 5820 5819 5818 5816 5815 5814 5813 5811 5810 5809 5807 5806 5805 5803 5802 5801 5800 5799 5798 5797 5795 5794 5793 5792 5791 5790
5830 5829 5828 5828 5827 5827 5826 5825 5824 5824 5823 5822 5821 5820 5819 5818 5816 5815 5814 5813 5812 5810 5809 5807 5806 5804 5803 5801 5800 5799 5797 5796 5795 5794 5793 5792 5790 5789 5788 5786 5785 5784 5783
5825 5825 5824 5823 5823 5822 5822 5821 5820 5819 5818 5817 5816 5815 5814 5812 5811 5810 5809 5808 5806 5804 5803 5801 5800 5798 5797 5795 5794 5792 5791 5790 5789 5788 5786 5785 5784 5782 5781 5780 5779 5778 5777
5820 5820 5819 5818 5818 5817 5817 5816 5815 5814 5813 5812 5811 5809 5808 5807 5806 5805 5804 5802 5800 5799 5797 5795 5793 5792 5790 5788 5787 5786 5784 5783 5782 5781 5780 5778 5777 5776 5774 5773 5772 5770 5769
5814 5814 5813 5813 5812 5812 5811 5810 5809 5808 5807 5806 5804 5803 5802 5801 5800 5799 5797 5796 5794 5792 5791 5788 5787 5785 5783 5782 5780 5779 5777 5776 5775 5774 5773 5771 5770 5769 5768 5766 5765 5763 5762
5808 5808 5807 5806 5806 5805 5804 5804 5802 5801 5800 5799 5798 5797 5795 5794 5793 5792 5790 5789 5787 5786 5784 5782 5780 5778 5776 5775 5773 5771 5770 5769 5767 5766 5765 5764 5763 5762 5761 5759 5758 5756 5754
5801 5800 5800 5800 5799 5798 5797 5796 5795 5794 5793 5792 5791 5790 5788 5787 5786 5784 5783 5782 5780 5778 5776 5774 5773 5771 5769 5767 5765 5763 5762 5761 5760 5759 5758 5756 5755 5754 5753 5752 5750 5748 5747
5793 5793 5792 5792 5791 5790 5789 5789 5788 5786 5785 5784 5783 5782 5780 5779 5778 5777 5775 5774 5772 5770 5769 5767 5765 5763 5762 5759 5757 5755 5754 5752 5751 5751 5750 5749 5748 5746 5745 5744 5742 5740 5739
5785 5785 5784 5784 5783 5782 5781 5780 5779 5778 5777 5776 5775 5773 5772 5770 5769 5768 5766 5765 5763 5762 5760 5758 5757 5755 5754 5751 5749 5747 5745 5744 5743 5742 5742 5741 5740 5738 5737 5736 5734 5732 5730
5777 5777 5776 5775 5775 5773 5773 5772 5771 5770 5769 5767 5766 5765 5763 5762 5760 5759 5757 5755 5754 5753 5752 5750 5749 5747 5745 5743 5741 5739 5737 5735 5734 5734 5733 5732 5731 5730 5729 5727 5725 5723 5721
5769 5768 5767 5767 5766 5765 5764 5763 5762 5761 5760 5759 5758 5756 5754 5753 5751 5750 5748 5746 5745 5744 5742 5741 5740 5738 5737 5735 5733 5731 5729 5727 5726 5725 5724 5723 5722 5721 5720 5718 5716 5714 5712
5759 5758 5758 5757 5757 5756 5755 5754 5753 5752 5751 5750 5749 5747 5745 5744 5742 5740 5738 5737 5736 5734 5733 5732 5731 5730 5728 5726 5724 5722 5721 5719 5718 5717 5716 5715 5714 5712 5711 5709 5707 5705 5703
5749 5749 5748 5747 5747 5746 5745 5745 5744 5743 5742 5740 5739 5738 5736 5734 5733 5731 5729 5727 5726 5725 5724 5722 5721 5720 5718 5716 5715 5713 5712 5710 5709 5708 5707 5706 5704 5703 5702 5700 5698 5696 5694